Weather History for Monett, MO

Change the Weather History Date:

Tuesday, July 30, 2013

  Actual Average (KJLN) Record (KJLN)
Temperature  
Mean Temperature 76 °F 81 °F  
Max Temperature 82 °F 92 °F 107 °F (1986)
Min Temperature 69 °F 70 °F 56 °F (1965)
Degree Days  
Heating Degree Days 0 0  
Month to date heating degree days 0  
Since 1 June heating degree days 5  
Since 1 July heating degree days 0  
Cooling Degree Days 10 16  
Month to date cooling degree days 459  
Year to date cooling degree days 957  
Since 1 June cooling degree days 777  
Growing Degree Days 26 (Base 50)    
Moisture  
Dew Point 71 °F    
Average Humidity 89    
Maximum Humidity 100    
Minimum Humidity 70    
Precipitation  
Precipitation 0.83 in 0.10 in 2.06 in (2008)
Month to date precipitation 3.71  
Year to date precipitation 27.52  
Snow  
Snow 0.00 in - - ()
Month to date snowfall  
Since 1 June snowfall  
Since 1 July snowfall  
Snow Depth -    
Sea Level Pressure  
Sea Level Pressure 30.04 in    
Wind  
Wind Speed 8 mph (SSW)    
Max Wind Speed 20 mph    
Max Gust Speed 30 mph    
Visibility 9 miles    
Events Rain , Thunderstorm    
T = Trace of Precipitation, MM = Missing Value Source: NWS Daily Summary

Daily Weather History Graph

Daily Weather History Graph

Search for Another Location

Airport:

Trip Planner

Search our weather history database for the weather conditions in past years. The results will help you decide how hot, cold, wet, or windy it might be!

Date:

Astronomy

Jul. 30, 2013 Rise Set
Actual Time 6:20 AM CDT 8:24 PM CDT
Civil Twilight 5:51 AM CDT 8:53 PM CDT
Nautical Twilight 5:16 AM CDT 9:28 PM CDT
Astronomical Twilight 4:38 AM CDT 10:05 PM CDT
Moon 12:37 AM CDT (7/30) 2:45 PM CDT (7/30)
Length of Visible Light 15h 01m
Length of Day
14h 04m
Last Quarter, 41% of the Moon is Illuminated
Jul 30
Last Quarter
Aug 6
New
Aug 14
First Quarter
Aug 20
Full
Aug 28
Last Quarter

Hourly Weather History & Observations

Time (CDT) Temp. Heat Index Dew Point Humidity Pressure Visibility Wind Dir Wind Speed Gust Speed Precip Events Conditions
12:15 AM 71.6 °F - 71.6 °F 100% 30.03 in 7.0 mi East 8.1 mph 16.1 mph 0.01 in Rain , Thunderstorm Light Thunderstorms and Rain
12:35 AM 71.6 °F - 71.6 °F 100% 30.05 in 7.0 mi Calm Calm - 0.03 in Rain , Thunderstorm Rain
12:55 AM 71.6 °F - 71.6 °F 100% 30.05 in 4.0 mi ESE 9.2 mph - 0.13 in Rain , Thunderstorm Rain
1:15 AM 71.6 °F - 71.6 °F 100% 30.04 in 5.0 mi SE 11.5 mph - 0.04 in Rain , Thunderstorm Rain
1:35 AM 71.6 °F - 71.6 °F 100% 30.03 in 4.0 mi SE 11.5 mph - 0.14 in Rain , Thunderstorm Rain
1:55 AM 71.6 °F - 71.6 °F 100% 30.02 in 5.0 mi SE 12.7 mph 19.6 mph 0.21 in Rain , Thunderstorm Rain
2:15 AM 71.6 °F - 71.6 °F 100% 30.04 in 5.0 mi SE 8.1 mph - 0.04 in Rain , Thunderstorm Rain
2:35 AM 71.6 °F - 71.6 °F 100% 30.04 in 5.0 mi ESE 9.2 mph - 0.10 in Rain , Thunderstorm Rain
2:55 AM 71.6 °F - 71.6 °F 100% 30.03 in 4.0 mi SE 10.4 mph - 0.17 in Rain Rain
3:15 AM 71.6 °F - 71.6 °F 100% 30.00 in 5.0 mi SE 12.7 mph - 0.04 in Rain Rain
3:35 AM 71.6 °F - 71.6 °F 100% 30.01 in 5.0 mi SSE 12.7 mph 19.6 mph 0.11 in Rain , Thunderstorm Rain
3:55 AM 71.6 °F - 71.6 °F 100% 30.02 in 5.0 mi South 12.7 mph 16.1 mph 0.20 in Rain , Thunderstorm Heavy Thunderstorms and Rain
4:15 AM 71.6 °F - 71.6 °F 100% 30.02 in 7.0 mi South 16.1 mph 25.3 mph 0.04 in Rain Rain
4:35 AM 69.8 °F - 69.8 °F 100% 30.01 in 10.0 mi SSW 19.6 mph 29.9 mph 0.06 in Rain Light Rain
4:55 AM 69.8 °F - 69.8 °F 100% 30.02 in 10.0 mi SSW 11.5 mph - 0.06 in   Drizzle
5:15 AM 69.8 °F - 69.8 °F 100% 30.01 in 10.0 mi South 9.2 mph - N/A   Light Drizzle
5:35 AM 69.8 °F - 69.8 °F 100% 30.03 in 10.0 mi SSW 4.6 mph - N/A Rain Light Rain
5:55 AM 69.8 °F - 69.8 °F 100% 30.03 in 10.0 mi South 5.8 mph - N/A   Drizzle
6:15 AM 69.8 °F - 69.8 °F 100% 30.04 in 10.0 mi SSE 3.5 mph - 0.01 in Rain Light Rain
6:35 AM 69.8 °F - 69.8 °F 100% 30.05 in 10.0 mi SSE 3.5 mph - 0.01 in Rain Rain
6:55 AM 69.8 °F - 69.8 °F 100% 30.05 in 10.0 mi SSE 5.8 mph - 0.01 in   Overcast
7:15 AM 69.8 °F - 69.8 °F 100% 30.04 in 10.0 mi SSE 4.6 mph - N/A Rain Light Rain
7:35 AM 69.8 °F - 69.8 °F 100% 30.04 in 10.0 mi SSE 5.8 mph - N/A   Mostly Cloudy
7:55 AM 69.8 °F - 69.8 °F 100% 30.05 in 10.0 mi SSE 5.8 mph - N/A   Overcast
8:15 AM 69.8 °F - 69.8 °F 100% 30.05 in 10.0 mi South 10.4 mph - N/A   Light Drizzle
8:35 AM 69.8 °F - 69.8 °F 100% 30.05 in 7.0 mi SSE 5.8 mph - 0.01 in Rain Rain
8:55 AM 71.6 °F - 69.8 °F 94% 30.05 in 10.0 mi South 5.8 mph - 0.01 in   Overcast
9:15 AM 71.6 °F - 69.8 °F 94% 30.05 in 10.0 mi South 6.9 mph - N/A   Overcast
9:35 AM 71.6 °F - 71.6 °F 100% 30.06 in 10.0 mi SSW 8.1 mph - N/A   Overcast
9:55 AM 71.6 °F - 69.8 °F 94% 30.05 in 5.0 mi SSW 10.4 mph 17.3 mph 0.04 in Rain Light Rain
10:15 AM 71.6 °F - 69.8 °F 94% 30.05 in 10.0 mi South 11.5 mph - N/A   Overcast
10:35 AM 73.4 °F - 71.6 °F 94% 30.05 in 10.0 mi South 10.4 mph - N/A   Overcast
10:55 AM 73.4 °F - 71.6 °F 94% 30.05 in 10.0 mi SSW 11.5 mph - N/A   Overcast
11:15 AM 73.4 °F - 71.6 °F 94% 30.06 in 10.0 mi SSW 8.1 mph - N/A   Overcast
11:55 AM 77.0 °F - 71.6 °F 83% 30.06 in 10.0 mi SW 10.4 mph 17.3 mph N/A   Mostly Cloudy
12:15 PM 77.0 °F - 71.6 °F 83% 30.05 in 10.0 mi SW 11.5 mph - N/A   Overcast
12:35 PM 78.8 °F - 71.6 °F 78% 30.05 in 10.0 mi SW 6.9 mph - N/A   Overcast
1:15 PM 80.6 °F 85.4 °F 73.4 °F 79% 30.05 in 10.0 mi WSW 10.4 mph - N/A   Mostly Cloudy
1:35 PM 80.6 °F 84.6 °F 71.6 °F 74% 30.04 in 10.0 mi WSW 12.7 mph - N/A   Overcast
1:55 PM 80.6 °F 84.6 °F 71.6 °F 74% 30.04 in 10.0 mi WSW 8.1 mph - N/A   Overcast
2:15 PM 80.6 °F 84.6 °F 71.6 °F 74% 30.04 in 10.0 mi WSW 11.5 mph - N/A   Overcast
2:35 PM 80.6 °F 84.6 °F 71.6 °F 74% 30.03 in 10.0 mi SW 10.4 mph - N/A   Overcast
2:55 PM 80.6 °F 84.6 °F 71.6 °F 74% 30.03 in 10.0 mi SW 10.4 mph - N/A   Mostly Cloudy
3:15 PM 82.4 °F 87.2 °F 71.6 °F 70% 30.03 in 10.0 mi WSW 10.4 mph - N/A   Scattered Clouds
3:35 PM 82.4 °F 87.2 °F 71.6 °F 70% 30.03 in 10.0 mi WSW 8.1 mph - N/A   Scattered Clouds
3:55 PM 80.6 °F 84.6 °F 71.6 °F 74% 30.02 in 10.0 mi WSW 9.2 mph - N/A   Scattered Clouds
4:15 PM 80.6 °F 84.6 °F 71.6 °F 74% 30.03 in 10.0 mi WSW 8.1 mph - N/A   Mostly Cloudy
4:35 PM 80.6 °F 84.6 °F 71.6 °F 74% 30.03 in 10.0 mi WSW 6.9 mph - N/A   Overcast
4:55 PM 80.6 °F 84.6 °F 71.6 °F 74% 30.03 in 10.0 mi SW 5.8 mph - N/A   Mostly Cloudy
5:15 PM 80.6 °F 84.6 °F 71.6 °F 74% 30.02 in 10.0 mi WSW 5.8 mph - N/A   Overcast
5:35 PM 80.6 °F 84.6 °F 71.6 °F 74% 30.03 in 10.0 mi SW 6.9 mph - N/A   Overcast
5:55 PM 80.6 °F 84.6 °F 71.6 °F 74% 30.02 in 10.0 mi WSW 8.1 mph - N/A   Scattered Clouds
6:15 PM 80.6 °F 84.6 °F 71.6 °F 74% 30.02 in 10.0 mi WSW 4.6 mph - N/A   Scattered Clouds
6:35 PM 80.6 °F 84.6 °F 71.6 °F 74% 30.02 in 10.0 mi West 5.8 mph - N/A   Clear
6:55 PM 80.6 °F 84.6 °F 71.6 °F 74% 30.02 in 10.0 mi West 5.8 mph - N/A   Clear
7:15 PM 80.6 °F 84.6 °F 71.6 °F 74% 30.01 in 10.0 mi West 5.8 mph - N/A   Clear
7:35 PM 78.8 °F - 71.6 °F 78% 30.01 in 10.0 mi Calm Calm - N/A   Scattered Clouds
7:55 PM 78.8 °F - 71.6 °F 78% 30.02 in 10.0 mi Calm Calm - N/A   Mostly Cloudy
8:15 PM 78.8 °F - 71.6 °F 78% 30.02 in 10.0 mi Calm Calm - N/A   Overcast
8:35 PM 78.8 °F - 71.6 °F 78% 30.03 in 10.0 mi Calm Calm - N/A   Overcast
8:55 PM 77.0 °F - 73.4 °F 89% 30.03 in 10.0 mi Calm Calm - N/A   Overcast
9:15 PM 77.0 °F - 71.6 °F 83% 30.03 in 10.0 mi Calm Calm - N/A   Mostly Cloudy
9:35 PM 75.2 °F - 71.6 °F 89% 30.04 in 10.0 mi Calm Calm - N/A   Overcast
9:55 PM 75.2 °F - 71.6 °F 89% 30.04 in 10.0 mi Calm Calm - N/A   Overcast
10:15 PM 75.2 °F - 73.4 °F 94% 30.05 in 10.0 mi Calm Calm - N/A   Scattered Clouds
10:35 PM 73.4 °F - 71.6 °F 94% 30.04 in 10.0 mi Calm Calm - N/A   Mostly Cloudy
10:55 PM 73.4 °F - 71.6 °F 94% 30.05 in 10.0 mi North 4.6 mph - N/A   Overcast
11:15 PM 73.4 °F - 71.6 °F 94% 30.06 in 10.0 mi North 3.5 mph - N/A   Overcast
11:35 PM 75.2 °F - 71.6 °F 89% 30.06 in 10.0 mi North 3.5 mph - N/A   Overcast
11:55 PM 75.2 °F - 71.6 °F 89% 30.06 in 10.0 mi Calm Calm - N/A   Overcast